This is the latest recevied weather packets stored in our database for station/object EA8BQU-10. If no packets are shown the sender has not sent any weather packets the latest 10 day(s).
| Time | Temp. | Humidity | Pressure | Rain* | Wind** | Luminosity | Snow |
|---|---|---|---|---|---|---|---|
| 1788437546 | 25° C | 100% | 1019.9 hPa | - | - | - | - |
| 1788436646 | 25.56° C | 100% | 1020.2 hPa | - | - | - | - |
| 1788435792 | 25° C | 100% | 1021 hPa | - | - | - | - |
| 1788435745 | 25° C | 100% | 1021 hPa | - | - | - | - |
| 1788434854 | 25° C | 100% | 1020.1 hPa | - | - | - | - |
| 1788433946 | 25° C | 100% | 1020 hPa | - | - | - | - |
| 1788433352 | 25° C | 100% | 1020.2 hPa | - | - | - | - |
| 1788433046 | 25° C | 100% | 1020.2 hPa | - | - | - | - |
| 1788432146 | 25° C | 100% | 1019.9 hPa | - | - | - | - |
| 1788431246 | 24.44° C | 100% | 1019.6 hPa | - | - | - | - |
| 1788430346 | 24.44° C | 100% | 1019.5 hPa | - | - | - | - |
| 1788429446 | 24.44° C | 100% | 1019.2 hPa | - | - | - | - |
| 1788428546 | 24.44° C | 100% | 1019.3 hPa | - | - | - | - |
| 1788427645 | 24.44° C | 100% | 1019.3 hPa | - | - | - | - |
| 1788426745 | 24.44° C | 100% | 1019.5 hPa | - | - | - | - |
| 1788426157 | 24.44° C | 100% | 1019.9 hPa | - | - | - | - |
| 1788425845 | 24.44° C | 100% | 1019.9 hPa | - | - | - | - |
| 1788424945 | 23.89° C | 100% | 1019.8 hPa | - | - | - | - |
| 1788424045 | 23.89° C | 100% | 1019.6 hPa | - | - | - | - |
| 1788423145 | 23.89° C | 100% | 1019.4 hPa | - | - | - | - |
| 1788422245 | 23.33° C | 100% | 1019.3 hPa | - | - | - | - |
| 1788421345 | 23.33° C | 100% | 1019.5 hPa | - | - | - | - |
| 1788420444 | 23.33° C | 100% | 1019.5 hPa | - | - | - | - |
| 1788419544 | 23.33° C | 100% | 1019.3 hPa | - | - | - | - |
| 1788418644 | 22.78° C | 100% | 1019 hPa | - | - | - | - |
* Rain since midnight (hover to see other rain measurements)
** Current wind speed in m/s (hover to see current wind gust speed)